Meteo pe oră la Abengourou

Astăzi, 5 August, Joi

Timp Temperatura Precipitaţii Vânt Presiune Umiditate
00:00 +24°C° 0 mm 1 m/s 744 mmHg 99%
01:00 +24°C° 0 mm 1 m/s 744 mmHg 98%
02:00 +24°C° 0 mm 1 m/s 744 mmHg 98%
03:00 +24°C° 0 mm 1 m/s 743 mmHg 97%
04:00 +24°C° 0 mm 1 m/s 744 mmHg 97%
05:00 +23°C° 0 mm 1 m/s 744 mmHg 97%
06:00 +23°C° 0 mm 1 m/s 744 mmHg 97%
07:00 +24°C° 0.1 mm 1 m/s 745 mmHg 94%
08:00 +25°C° 0.1 mm 1 m/s 745 mmHg 91%
09:00 +25°C° 0.1 mm 2 m/s 746 mmHg 88%
10:00 +27°C° 0.1 mm 2 m/s 745 mmHg 79%
11:00 +29°C° 0.1 mm 2 m/s 745 mmHg 70%
12:00 +31°C° 0.1 mm 2 m/s 745 mmHg 61%
13:00 +30°C° 0.4 mm 2 m/s 744 mmHg 65%
14:00 +29°C° 0.4 mm 2 m/s 743 mmHg 70%
15:00 +29°C° 0.4 mm 2 m/s 743 mmHg 74%
16:00 +28°C° 0.3 mm 2 m/s 743 mmHg 80%
17:00 +27°C° 0.3 mm 2 m/s 743 mmHg 85%
18:00 +25°C° 0.3 mm 1 m/s 743 mmHg 91%
19:00 +25°C° 0 mm 1 m/s 744 mmHg 93%
20:00 +24°C° 0 mm 1 m/s 744 mmHg 96%
21:00 +24°C° 0 mm 1 m/s 745 mmHg 98%
22:00 +23°C° 0 mm 1 m/s 745 mmHg 98%
23:00 +23°C° 0 mm 1 m/s 745 mmHg 99%

Mâine, 6 August, Vineri

Timp Temperatura Precipitaţii Vânt Presiune Umiditate
00:00 +23°C° 0 mm 1 m/s 745 mmHg 99%
01:00 +23°C° 0 mm 1 m/s 745 mmHg 99%
02:00 +23°C° 0 mm 1 m/s 744 mmHg 99%
03:00 +22°C° 0 mm 1 m/s 744 mmHg 99%
04:00 +22°C° 0 mm 1 m/s 744 mmHg 99%
05:00 +22°C° 0 mm 1 m/s 744 mmHg 98%
06:00 +22°C° 0 mm 1 m/s 745 mmHg 98%
07:00 +23°C° 0 mm 1 m/s 745 mmHg 95%
08:00 +24°C° 0 mm 1 m/s 745 mmHg 92%
09:00 +25°C° 0 mm 1 m/s 746 mmHg 89%
10:00 +26°C° 0 mm 1 m/s 746 mmHg 82%
11:00 +27°C° 0 mm 1 m/s 745 mmHg 76%
12:00 +28°C° 0 mm 1 m/s 745 mmHg 69%
13:00 +28°C° 0 mm 1 m/s 744 mmHg 69%
14:00 +28°C° 0 mm 1 m/s 744 mmHg 68%
15:00 +28°C° 0 mm 1 m/s 743 mmHg 68%
16:00 +28°C° 0 mm 1 m/s 743 mmHg 71%
17:00 +25°C° 0 mm 0 m/s 743 mmHg 74%
18:00 +25°C° 0 mm 0 m/s 743 mmHg 77%
19:00 +24°C° 0 mm 0 m/s 743 mmHg 79%
20:00 +25°C° 0 mm 1 m/s 744 mmHg 81%
21:00 +25°C° 0 mm 1 m/s 744 mmHg 84%
22:00 +24°C° 0 mm 1 m/s 744 mmHg 86%
23:00 +23°C° 0 mm 1 m/s 744 mmHg 88%

Poimâine, 7 August, Sâmbătă

Timp Temperatura Precipitaţii Vânt Presiune Umiditate
00:00 +23°C° 0 mm 1 m/s 744 mmHg 89%
01:00 +22°C° 0 mm 1 m/s 744 mmHg 90%
02:00 +22°C° 0 mm 1 m/s 744 mmHg 91%
03:00 +22°C° 0 mm 1 m/s 743 mmHg 92%
04:00 +22°C° 0 mm 1 m/s 744 mmHg 91%
05:00 +22°C° 0 mm 1 m/s 744 mmHg 90%
06:00 +22°C° 0 mm 1 m/s 744 mmHg 90%
07:00 +23°C° 0 mm 1 m/s 745 mmHg 84%
08:00 +25°C° 0 mm 1 m/s 745 mmHg 78%
09:00 +26°C° 0 mm 2 m/s 746 mmHg 71%
10:00 +27°C° 0 mm 2 m/s 745 mmHg 66%
11:00 +29°C° 0 mm 2 m/s 745 mmHg 61%
12:00 +30°C° 0 mm 2 m/s 745 mmHg 55%
13:00 +31°C° 0 mm 2 m/s 744 mmHg 55%
14:00 +31°C° 0 mm 2 m/s 744 mmHg 55%
15:00 +31°C° 0 mm 2 m/s 743 mmHg 54%
16:00 +30°C° 0 mm 1 m/s 743 mmHg 60%
17:00 +29°C° 0 mm 1 m/s 743 mmHg 66%
18:00 +27°C° 0 mm 1 m/s 743 mmHg 71%
19:00 +26°C° 0 mm 1 m/s 743 mmHg 76%
20:00 +25°C° 0 mm 1 m/s 744 mmHg 80%
21:00 +22°C° 0 mm 0 m/s 744 mmHg 84%
22:00 +24°C° 0 mm 1 m/s 744 mmHg 87%
23:00 +23°C° 0 mm 1 m/s 744 mmHg 89%

8 August, Duminică

Timp Temperatura Precipitaţii Vânt Presiune Umiditate
00:00 +23°C° 0 mm 1 m/s 744 mmHg 92%
01:00 +23°C° 0 mm 1 m/s 744 mmHg 93%
02:00 +22°C° 0 mm 1 m/s 744 mmHg 94%
03:00 +22°C° 0 mm 1 m/s 743 mmHg 96%
04:00 +22°C° 0 mm 1 m/s 743 mmHg 95%
05:00 +22°C° 0 mm 1 m/s 744 mmHg 94%
06:00 +22°C° 0 mm 1 m/s 744 mmHg 93%
07:00 +24°C° 0 mm 1 m/s 744 mmHg 85%
08:00 +26°C° 0 mm 1 m/s 745 mmHg 77%
09:00 +27°C° 0 mm 2 m/s 746 mmHg 69%
10:00 +28°C° 0 mm 1 m/s 745 mmHg 67%
11:00 +28°C° 0 mm 1 m/s 745 mmHg 65%
12:00 +29°C° 0 mm 1 m/s 745 mmHg 63%
13:00 +30°C° 0.1 mm 1 m/s 744 mmHg 60%
14:00 +31°C° 0.1 mm 1 m/s 743 mmHg 56%
15:00 +32°C° 0.1 mm 1 m/s 742 mmHg 52%
16:00 +30°C° 0.2 mm 1 m/s 743 mmHg 63%
17:00 +28°C° 0.2 mm 1 m/s 743 mmHg 73%
18:00 +26°C° 0.2 mm 1 m/s 743 mmHg 83%
19:00 +26°C° 0.1 mm 1 m/s 743 mmHg 86%
20:00 +25°C° 0.1 mm 1 m/s 744 mmHg 89%
21:00 +24°C° 0.1 mm 1 m/s 744 mmHg 92%
22:00 +24°C° 0 mm 1 m/s 744 mmHg 92%
23:00 +24°C° 0 mm 1 m/s 744 mmHg 93%

9 August, Luni

Timp Temperatura Precipitaţii Vânt Presiune Umiditate
00:00 +24°C° 0 mm 1 m/s 744 mmHg 93%
01:00 +24°C° 0.1 mm 1 m/s 744 mmHg 94%
02:00 +23°C° 0.1 mm 1 m/s 744 mmHg 96%
03:00 +23°C° 0.1 mm 1 m/s 743 mmHg 97%
04:00 +23°C° 0 mm 1 m/s 744 mmHg 97%
05:00 +23°C° 0 mm 1 m/s 744 mmHg 97%
06:00 +23°C° 0 mm 1 m/s 744 mmHg 97%
07:00 +24°C° 0.1 mm 1 m/s 745 mmHg 93%
08:00 +25°C° 0.1 mm 2 m/s 745 mmHg 88%
09:00 +26°C° 0.1 mm 2 m/s 745 mmHg 83%
10:00 +26°C° 0.3 mm 2 m/s 745 mmHg 82%
11:00 +27°C° 0.3 mm 2 m/s 745 mmHg 82%
12:00 +27°C° 0.3 mm 2 m/s 745 mmHg 81%
13:00 +28°C° 0.3 mm 2 m/s 744 mmHg 77%
14:00 +28°C° 0.3 mm 2 m/s 744 mmHg 74%
15:00 +29°C° 0.3 mm 2 m/s 743 mmHg 71%
16:00 +28°C° 0.7 mm 2 m/s 743 mmHg 78%
17:00 +27°C° 0.7 mm 2 m/s 743 mmHg 85%
18:00 +25°C° 0.7 mm 1 m/s 743 mmHg 92%
19:00 +25°C° 0.2 mm 1 m/s 744 mmHg 93%
20:00 +24°C° 0.2 mm 1 m/s 744 mmHg 95%
21:00 +23°C° 0.2 mm 1 m/s 745 mmHg 97%
22:00 +23°C° 0 mm 1 m/s 745 mmHg 97%
23:00 +23°C° 0 mm 1 m/s 745 mmHg 97%

10 August, Marţi

Timp Temperatura Precipitaţii Vânt Presiune Umiditate
00:00 +22°C° 0 mm 1 m/s 745 mmHg 98%
01:00 +22°C° 0 mm 1 m/s 745 mmHg 98%
02:00 +22°C° 0 mm 1 m/s 744 mmHg 99%
03:00 +22°C° 0 mm 1 m/s 744 mmHg 99%
04:00 +22°C° 0 mm 1 m/s 744 mmHg 99%
05:00 +22°C° 0 mm 1 m/s 744 mmHg 98%
06:00 +23°C° 0 mm 1 m/s 745 mmHg 98%
07:00 +23°C° 0 mm 1 m/s 745 mmHg 96%
08:00 +24°C° 0 mm 1 m/s 745 mmHg 93%
09:00 +24°C° 0 mm 1 m/s 746 mmHg 90%
10:00 +26°C° 0.1 mm 1 m/s 745 mmHg 81%
11:00 +28°C° 0.1 mm 1 m/s 745 mmHg 73%
12:00 +30°C° 0.1 mm 2 m/s 745 mmHg 64%
13:00 +29°C° 0.8 mm 2 m/s 744 mmHg 69%
14:00 +29°C° 0.8 mm 2 m/s 743 mmHg 75%
15:00 +28°C° 0.8 mm 2 m/s 743 mmHg 81%
16:00 +27°C° 1 mm 1 m/s 743 mmHg 86%
17:00 +26°C° 1 mm 1 m/s 743 mmHg 90%
18:00 +25°C° 1 mm 1 m/s 743 mmHg 95%
19:00 +25°C° 0.1 mm 1 m/s 743 mmHg 96%
20:00 +24°C° 0.1 mm 1 m/s 744 mmHg 96%
21:00 +23°C° 0.1 mm 1 m/s 744 mmHg 97%
22:00 +23°C° 0 mm 1 m/s 744 mmHg 97%
23:00 +23°C° 0 mm 1 m/s 744 mmHg 98%
Arată mai mult

Formular de consimțământ

Meteoprog și furnizorii noștri de servicii pot stoca și accesa date personale, precum cookies, identificatori de dispozitiv sau alte tehnologii similare pe dispozitivul dumneavoastră și procesa astfel de date pentru a personaliza conținutul și reclamele, dar și pentru a oferi caracteristici de social media și pentru a analiza traficul.

  • Stocarea și/sau accesarea informațiilor pe dispozitivul dumneavoastră

    Cookies, identificatori de dispozitiv sau alte informații pot fi stocate sau accesate pe dispozitiv în scopurile indicate mai sus.

  • Reclame și conținut personalizat, evaluarea reclamelor și a conținutului, informații despre audiențe și dezvoltarea produselor

    Reclamele și conținutul pot fi personalizate pe baza unui profil. Pot fi adăugate date suplimentare pentru a personaliza mai bine reclamele și conținutul. Performanța reclamelor și conținutului poate fi măsurată. Pot fi obținute informații despre utilizatorii care au văzut reclamele și conținutul. Aceste date pot fi utilizate pentru a dezvolta sau îmbunătăți experiența utilizatorilor, sistemele și software-ul.

Dând clic pe ‘Sunt de acord’, permiteți utilizarea cookie-urilor menționate, a identificatorilor de dispozitiv, balizelor web sau altor tehnologii similare. Setările pot fi modificate din browser-ul dispozitivului dumneavoastră.

În anumite scopuri, interesele legitime pot prima asupra consimțământului. Puteți citi mai multe informații în acest sens în Politica privind Confidențialitatea Datelor și Cookie.